Wind_Speed
8 8 8 8 8 8 7 7 6 6 7 7 7 6 5 5 5 3 3 2 3 4 4 5 5 6 6 6 7 7 7 7 7 7 7 8 8 8 8 7 7 7 7
8 8 8 8 8 7 6 6 6 7 7 8 8 7 6 6 6 5 4 4 4 5 5 6 6 7 7 7 7 7 7 7 8 8 8 9 8 8 8 8 7 8 9
8 7 7 8 8 7 6 7 7 8 8 8 8 8 7 6 6 7 6 5 5 6 6 6 6 7 7 7 7 7 8 8 9 9 10 10 10 9 9 8 8 8 9
8 8 7 7 7 7 6 7 7 8 8 8 8 8 7 7 7 7 7 6 6 6 6 6 7 7 8 7 8 8 8 9 9 10 10 11 11 10 10 9 9 9 9
8 8 8 8 7 7 6 6 8 8 8 8 8 8 8 7 8 8 7 7 7 7 7 7 7 8 8 9 9 9 9 10 10 10 11 11 11 11 10 10 11 11 11
9 8 8 8 7 7 6 6 7 8 8 8 9 8 8 8 9 8 8 8 8 8 8 8 8 9 9 10 10 10 10 11 11 11 11 12 12 12 12 12 12 12 13
9 8 7 7 8 7 6 7 7 8 8 8 9 9 9 9 9 9 8 9 9 9 10 10 10 11 11 11 12 12 12 12 12 12 13 13 14 14 14 14 14 14 15
9 9 8 8 8 8 8 8 8 9 10 10 10 10 9 9 9 9 10 10 10 11 11 11 12 12 13 13 13 13 13 13 13 13 13 14 15 15 15 15 15 15 16
11 10 9 9 9 8 8 9 9 10 10 11 11 11 10 10 10 10 11 11 12 12 13 13 13 14 14 14 13 13 13 14 14 15 15 15 15 16 16 17 17 17 17
12 11 11 10 10 10 9 10 10 11 11 12 12 12 12 11 11 12 13 13 13 14 14 14 15 15 15 15 15 15 16 16 16 16 17 17 17 17 17 18 18 19 19
13 12 11 11 11 11 11 11 11 12 12 12 13 13 13 13 13 14 15 16 16 16 16 16 16 16 16 17 17 18 18 18 17 18 18 18 18 18 19 19 20 20 21
14 13 12 12 12 13 12 12 12 13 13 13 13 14 14 15 15 15 16 17 17 17 17 17 18 18 18 18 19 19 20 20 19 19 19 19 19 20 20 21 22 22 22
15 15 14 13 13 14 14 14 14 14 14 15 15 15 15 15 16 16 18 18 18 18 19 19 19 19 19 19 20 20 20 20 21 20 20 20 20 20 21 22 22 22 22
17 17 16 15 15 15 15 15 16 16 16 16 16 16 16 17 18 18 18 18 18 19 20 20 20 20 20 20 20 21 21 21 21 21 21 21 22 22 22 22 23 23 23
20 19 18 18 17 17 17 16 16 17 17 17 17 17 18 18 19 19 19 19 19 20 21 21 21 21 21 21 22 22 22 22 22 22 23 23 23 24 24 24 24 23 23
21 21 20 20 20 19 18 18 18 18 19 19 19 19 19 19 20 20 21 21 21 21 22 22 22 22 22 22 22 22 23 23 24 24 24 24 24 25 25 25 25 25 25
24 23 22 22 21 21 20 19 19 20 21 21 21 21 20 21 21 20 21 22 22 23 23 23 23 23 24 23 23 23 24 25 25 25 25 26 26 26 26 26 26 26 26
25 24 23 23 22 22 21 22 22 22 23 23 23 23 23 22 22 21 22 23 24 25 25 24 24 24 24 24 25 25 25 26 26 26 26 27 27 27 27 27 27 27 27
25 25 24 24 24 24 24 24 24 24 24 25 25 25 25 24 24 24 25 26 26 26 27 26 25 24 25 25 26 26 26 26 27 27 27 28 27 27 28 28 28 28 28
26 26 26 25 25 26 26 27 27 27 27 27 27 27 26 26 26 26 27 28 28 28 28 27 26 26 26 26 26 27 27 27 28 28 28 28 28 28 29 29 29 29 29
27 27 27 26 26 26 27 28 28 29 28 28 28 27 27 28 28 28 29 30 30 30 29 28 27 27 27 27 28 28 28 29 29 29 29 29 29 30 30 30 30 30 30
29 29 28 27 27 28 28 29 29 29 29 29 28 28 28 29 30 31 32 32 31 31 30 30 29 28 28 29 29 29 29 29 30 30 30 30 30 31 31 31 31 31 31
30 30 30 29 28 29 29 29 29 29 29 30 30 30 30 30 31 32 32 32 31 31 31 31 31 30 30 30 30 30 30 30 31 31 31 31 31 31 32 32 31 31 31
30 30 30 30 29 30 29 30 30 30 31 31 32 31 32 32 33 33 32 32 32 32 33 33 33 32 31 31 32 32 32 32 31 31 31 32 32 32 32 32 32 32 32
31 31 31 31 30 30 30 31 31 31 32 32 32 33 34 35 34 34 33 33 33 34 34 35 35 34 34 34 33 33 34 34 33 33 33 33 33 32 31 32 32 32 32
32 31 31 31 32 32 32 32 32 32 33 33 33 33 34 34 35 35 34 34 35 35 36 36 36 35 35 35 35 35 35 34 34 34 33 33 33 32 32 32 32 32 32
Wind_Direction
15 16 17 17 20 20 27 29 27 25 23 23 23 27 26 21 21 15 2 337 318 318 317 317 313 304 303 306 307 306 307 314 316 316 316 314 312 307 311 306 303 297 291
6 7 10 13 17 21 22 22 19 16 20 21 20 19 22 19 15 10 360 349 336 331 323 320 321 315 308 308 311 309 310 308 312 316 317 317 315 311 312 307 297 297 299
356 357 358 5 11 13 15 13 16 17 16 14 16 18 16 16 14 9 0 347 341 335 331 326 325 323 319 312 310 309 309 309 308 307 307 309 313 311 312 309 300 300 304
345 346 350 352 358 2 2 4 5 7 10 11 10 8 3 5 6 4 0 352 346 343 338 336 329 325 321 313 310 310 312 311 313 313 309 308 311 313 315 312 308 305 302
344 339 345 345 349 350 349 355 359 358 358 358 357 356 355 359 2 359 353 348 345 343 338 333 330 329 328 323 319 317 316 313 312 313 313 313 312 312 312 308 304 302 301
335 336 336 337 341 341 344 345 346 347 347 346 345 346 348 349 350 350 349 347 343 339 336 331 327 323 322 322 321 316 314 313 311 311 310 310 310 309 308 306 303 301 300
323 331 335 332 331 330 327 331 333 335 337 337 336 335 334 332 333 335 335 335 334 331 326 323 320 318 317 316 317 317 314 313 312 311 307 306 305 307 305 303 303 301 300
313 319 324 325 325 323 319 317 321 324 327 328 330 329 327 325 326 327 325 325 322 321 321 319 315 313 313 312 312 313 314 314 313 310 306 303 302 302 301 300 300 298 297
304 306 310 311 311 311 310 307 310 315 319 322 323 325 325 325 323 320 319 319 315 312 311 311 311 311 311 310 310 310 310 310 309 309 307 304 302 303 300 298 298 296 296
298 301 302 304 304 304 302 303 305 308 310 313 315 317 319 320 317 314 314 312 310 310 309 308 308 309 308 306 306 305 304 307 308 309 309 306 302 301 302 301 298 296 296
293 298 301 300 299 299 299 300 301 302 305 307 309 311 312 314 313 313 312 312 310 309 310 310 309 308 307 305 303 302 303 305 304 305 306 306 303 301 302 301 299 297 294
283 287 292 293 294 295 295 296 298 298 300 303 307 308 309 310 308 309 311 309 309 308 307 308 307 307 307 306 304 303 303 304 302 302 303 303 303 302 301 301 301 299 296
276 279 283 285 289 291 293 295 297 295 297 300 303 304 304 306 307 308 309 307 306 307 306 306 306 305 305 306 306 303 302 303 303 302 301 303 304 303 303 302 302 300 297
271 272 275 279 282 287 288 290 295 293 295 297 298 300 302 302 304 307 307 306 306 307 306 307 307 306 305 305 305 303 301 302 302 301 300 301 302 301 302 302 301 301 299
266 267 270 273 277 282 286 289 292 294 297 297 298 297 300 300 301 303 304 306 307 307 306 305 305 304 303 302 303 303 302 302 303 302 302 301 301 301 300 299 299 300 299
266 268 270 270 272 276 281 285 289 291 293 296 298 297 298 297 298 301 304 307 307 305 306 304 302 303 302 301 301 302 303 302 303 302 301 300 299 300 299 298 298 298 298
268 269 269 268 270 272 276 281 285 288 290 291 292 294 295 296 297 298 301 305 305 305 307 303 301 300 300 301 300 299 300 302 303 303 301 300 299 298 297 296 297 297 297
265 266 267 267 267 269 273 278 283 285 287 289 290 291 293 295 296 298 300 301 303 304 305 303 300 299 299 299 300 300 300 301 303 303 302 301 298 297 297 297 297 297 296
265 264 265 266 267 268 272 275 280 283 285 288 289 288 289 292 294 296 297 299 301 303 305 303 301 300 298 298 300 300 300 301 302 302 301 301 299 298 297 297 296 295 295
264 264 263 264 266 268 272 275 279 283 285 286 287 286 287 288 291 293 296 297 298 299 300 300 299 298 299 298 299 299 299 299 299 300 299 298 298 297 297 296 295 294 294
264 263 263 264 266 268 271 274 278 282 284 284 285 284 286 289 290 292 294 295 295 295 295 295 295 297 297 297 297 299 300 299 298 298 297 296 297 297 297 297 296 295 294
265 264 264 264 265 267 270 274 277 280 281 282 284 285 288 291 291 291 292 292 293 293 293 293 292 294 296 297 296 297 298 297 297 297 297 296 295 295 296 297 296 296 296
264 264 264 264 265 267 270 273 276 279 281 281 283 285 287 289 291 291 291 292 293 294 294 293 293 291 293 294 294 295 296 296 297 297 297 297 296 296 296 296 295 296 296
263 263 264 264 266 268 270 272 275 277 279 281 282 284 286 287 289 290 292 294 294 294 295 295 294 293 293 293 294 295 295 296 297 297 297 297 296 296 296 295 295 295 296
261 262 263 264 266 268 270 272 274 276 278 281 283 284 286 286 287 289 291 293 294 295 294 293 293 292 293 294 294 295 295 295 296 297 298 298 295 295 296 296 296 296 296
261 262 262 264 266 268 270 271 274 276 278 281 282 283 286 287 288 289 291 292 293 293 292 292 291 291 291 291 292 293 294 294 294 295 297 298 296 294 294 294 295 295 295
Height
5904 5902 5901 5900 5900 5899 5898 5898 5898 5897 5896 5895 5894 5894 5893 5892 5892 5891 5891 5891 5891 5891 5891 5890 5890 5890 5890 5890 5890 5889 5889 5889 5888 5888 5887 5886 5885 5885 5884 5884 5884 5884 5884
5905 5904 5903 5901 5901 5900 5899 5899 5898 5898 5897 5896 5895 5894 5894 5893 5893 5892 5892 5891 5891 5891 5890 5890 5890 5890 5889 5889 5889 5888 5888 5888 5887 5886 5886 5885 5885 5884 5883 5882 5882 5882 5882
5905 5904 5903 5902 5901 5900 5900 5900 5899 5898 5898 5897 5896 5895 5895 5894 5894 5893 5892 5892 5891 5891 5890 5890 5890 5889 5889 5888 5888 5887 5887 5886 5886 5885 5885 5884 5883 5882 5882 5881 5880 5880 5880
5905 5904 5903 5903 5902 5901 5901 5900 5900 5899 5898 5898 5897 5896 5895 5894 5894 5894 5893 5892 5892 5891 5890 5890 5889 5889 5888 5887 5887 5886 5885 5885 5884 5883 5882 5882 5881 5880 5880 5879 5879 5878 5878
5905 5904 5903 5903 5902 5902 5901 5900 5900 5899 5899 5898 5897 5896 5895 5895 5894 5894 5893 5893 5892 5891 5890 5889 5889 5888 5887 5886 5886 5885 5884 5883 5882 5882 5881 5880 5879 5878 5878 5877 5877 5876 5876
5905 5904 5904 5903 5902 5902 5901 5901 5900 5900 5899 5898 5897 5896 5896 5895 5894 5894 5893 5892 5892 5891 5890 5889 5888 5887 5886 5885 5884 5883 5883 5882 5881 5880 5879 5878 5877 5876 5876 5875 5874 5874 5873
5904 5903 5903 5902 5901 5901 5900 5900 5900 5899 5899 5898 5897 5896 5895 5895 5894 5894 5893 5892 5891 5890 5889 5888 5887 5886 5885 5884 5883 5882 5881 5880 5879 5878 5877 5876 5875 5874 5873 5873 5872 5871 5870
5903 5902 5902 5901 5900 5900 5899 5899 5899 5898 5898 5897 5896 5895 5895 5894 5893 5892 5891 5891 5890 5889 5887 5886 5885 5884 5883 5882 5881 5880 5879 5878 5877 5876 5875 5874 5872 5871 5870 5869 5869 5868 5867
5901 5901 5900 5900 5899 5899 5898 5898 5897 5897 5896 5896 5895 5894 5893 5892 5892 5891 5890 5889 5888 5887 5886 5885 5883 5882 5881 5880 5879 5878 5877 5876 5874 5873 5872 5870 5869 5868 5867 5866 5865 5864 5863
5899 5899 5898 5898 5897 5897 5896 5896 5896 5895 5895 5894 5893 5892 5892 5891 5890 5889 5888 5887 5886 5884 5883 5882 5881 5880 5878 5877 5876 5875 5874 5873 5871 5870 5868 5867 5866 5864 5863 5862 5861 5859 5858
5897 5896 5896 5895 5895 5894 5894 5894 5894 5893 5893 5892 5891 5891 5890 5889 5887 5887 5886 5884 5883 5882 5880 5879 5878 5876 5875 5874 5873 5871 5870 5869 5868 5866 5864 5863 5861 5860 5859 5857 5856 5854 5853
5894 5894 5893 5893 5892 5892 5892 5891 5891 5890 5890 5889 5889 5888 5887 5886 5885 5884 5883 5882 5880 5879 5878 5876 5875 5873 5872 5870 5869 5868 5867 5865 5864 5862 5860 5858 5857 5855 5854 5852 5851 5849 5847
5890 5890 5890 5890 5889 5889 5888 5888 5888 5887 5887 5886 5886 5885 5884 5883 5882 5881 5879 5878 5877 5875 5874 5873 5871 5869 5868 5866 5865 5863 5862 5860 5859 5857 5855 5853 5852 5850 5848 5847 5845 5843 5842
5886 5886 5887 5886 5886 5885 5885 5885 5884 5884 5883 5883 5882 5881 5880 5879 5878 5877 5875 5874 5872 5871 5870 5869 5867 5866 5864 5862 5861 5859 5857 5856 5854 5852 5850 5848 5847 5845 5843 5841 5840 5838 5836
5881 5882 5882 5883 5882 5882 5881 5881 5881 5880 5879 5879 5878 5877 5876 5875 5874 5873 5871 5870 5869 5867 5866 5864 5863 5861 5859 5858 5856 5854 5852 5851 5849 5847 5845 5843 5841 5839 5837 5836 5834 5832 5830
5875 5876 5877 5878 5878 5878 5878 5877 5877 5876 5876 5875 5874 5873 5872 5871 5870 5869 5867 5865 5864 5862 5861 5859 5858 5856 5854 5852 5851 5849 5847 5845 5843 5841 5839 5837 5835 5833 5831 5829 5828 5826 5824
5870 5872 5873 5873 5873 5873 5873 5873 5873 5872 5871 5871 5869 5868 5867 5866 5865 5864 5863 5861 5859 5858 5856 5854 5852 5850 5849 5847 5845 5843 5841 5840 5837 5835 5833 5831 5828 5826 5825 5823 5821 5819 5816
5865 5866 5867 5868 5868 5868 5868 5868 5868 5867 5866 5865 5864 5863 5862 5861 5860 5859 5858 5856 5854 5852 5850 5848 5846 5844 5843 5841 5839 5837 5835 5833 5831 5829 5827 5824 5822 5820 5818 5816 5814 5812 5810
5859 5860 5861 5862 5863 5863 5863 5863 5862 5862 5861 5860 5859 5858 5857 5856 5854 5853 5851 5850 5848 5846 5844 5842 5840 5838 5836 5834 5832 5830 5828 5827 5825 5822 5820 5817 5815 5813 5811 5809 5807 5805 5802
5851 5854 5855 5856 5856 5857 5857 5857 5856 5856 5854 5854 5852 5851 5851 5849 5848 5847 5845 5843 5842 5840 5838 5836 5834 5832 5830 5828 5826 5823 5822 5820 5818 5816 5813 5810 5808 5806 5803 5801 5799 5797 5795
5845 5846 5847 5849 5850 5850 5851 5850 5850 5849 5848 5847 5846 5845 5843 5842 5841 5840 5838 5836 5834 5833 5831 5830 5828 5826 5823 5821 5819 5816 5814 5812 5810 5808 5806 5803 5800 5798 5796 5793 5791 5789 5787
5838 5839 5840 5842 5843 5843 5843 5843 5843 5842 5841 5840 5839 5838 5837 5835 5834 5832 5830 5829 5827 5825 5823 5821 5820 5818 5816 5813 5811 5809 5807 5804 5802 5800 5798 5795 5792 5790 5788 5786 5783 5781 5778
5830 5831 5833 5834 5835 5835 5836 5836 5835 5835 5834 5833 5832 5831 5830 5828 5826 5824 5822 5821 5819 5817 5815 5813 5811 5809 5807 5805 5803 5801 5798 5796 5793 5791 5789 5786 5783 5782 5780 5777 5774 5772 5769
5822 5823 5824 5826 5827 5827 5828 5828 5828 5827 5826 5825 5824 5823 5821 5820 5818 5816 5814 5813 5811 5809 5807 5804 5802 5800 5798 5796 5794 5791 5789 5787 5785 5783 5780 5778 5776 5773 5771 5768 5766 5763 5760
5814 5815 5816 5818 5819 5819 5820 5820 5820 5819 5818 5817 5816 5814 5813 5812 5810 5808 5806 5804 5802 5800 5798 5796 5794 5791 5789 5787 5785 5783 5781 5778 5776 5774 5772 5769 5767 5765 5762 5759 5757 5754 5751
5806 5807 5808 5809 5810 5811 5811 5811 5811 5810 5809 5808 5807 5806 5804 5803 5801 5799 5798 5795 5793 5791 5788 5786 5784 5782 5780 5778 5776 5774 5771 5769 5767 5764 5762 5760 5757 5755 5752 5750 5747 5745 5742